Bookmark and Share
Track history (hours):
 

Vingaren

Last reported at 2014-Apr-20 18:33 UTC. Time now 2014-Apr-20 18:57 UTC.
Position N 53°54' E 009°09'.

Length 89 m; draft 6.5 m.

Type: Cargo ship. MMSI: 231844000.

NotesDate/timePositionNaut miles runAvg speedWind from/ knotsBaromVisibWave heightAir tempDewpointWater temp
2014-Apr-20 18:33N 53°54' E 009°09'8 7.9
2014-Apr-20 17:33N 53°60' E 009°18'8 8.3
2014-Apr-20 16:33N 54°08' E 009°20'7 7.4
2014-Apr-20 15:32N 54°11' E 009°32'57 6.8
2014-Apr-20 07:10N 54°36' E 010°59'6 9.0
2014-Apr-20 06:32N 54°36' E 011°09'9 9.4
2014-Apr-20 05:33N 54°32' E 011°24'9 9.2
2014-Apr-20 04:33N 54°29' E 011°38'9 9.3
2014-Apr-20 03:33N 54°26' E 011°54'9 9.3
2014-Apr-20 02:33N 54°28' E 012°10'9 8.9
2014-Apr-20 01:33N 54°36' E 012°15'9 9.2
2014-Apr-20 00:33N 54°42' E 012°28'9 8.6
2014-Apr-19 23:33N 54°46' E 012°40'9 8.9
2014-Apr-19 22:33N 54°50' E 012°54'9 9.2
2014-Apr-19 21:33N 54°53' E 013°09'10 9.5
2014-Apr-19 20:33N 54°56' E 013°25'9 9.2
2014-Apr-19 19:33N 54°59' E 013°40'9 9.2
2014-Apr-19 18:33N 55°03' E 013°55'9 8.8
2014-Apr-19 17:33N 55°08' E 014°07'9 9.0
2014-Apr-19 16:33N 55°14' E 014°18'9 9.1
2014-Apr-19 15:33N 55°21' E 014°29'9 9.1
2014-Apr-19 14:33N 55°28' E 014°40'9 9.2
2014-Apr-19 13:33N 55°32' E 014°54'9 9.3
2014-Apr-19 12:33N 55°37' E 015°09'9 9.3
2014-Apr-19 11:33N 55°41' E 015°23'10 9.1
2014-Apr-19 10:27N 55°46' E 015°39'8 9.1
2014-Apr-19 09:33N 55°50' E 015°51'9 9.2
2014-Apr-19 08:33N 55°55' E 016°05'9 9.3
2014-Apr-19 07:33N 56°00' E 016°19'312 8.0
2014-Apr-17 16:24N 59°38' E 023°18'7 8.4
2014-Apr-17 15:32N 59°39' E 023°32'8 8.3
2014-Apr-17 14:33N 59°42' E 023°47'9 8.5
2014-Apr-17 13:32N 59°44' E 024°04'17 8.4
2014-Apr-17 11:33N 59°48' E 024°36'53 8.5
2014-Apr-17 05:21N 59°60' E 026°19'7 9.0
2014-Apr-17 04:32N 60°02' E 026°33'27 8.5
2014-Apr-17 01:20N 60°07' E 027°27'83 8.5
2014-Apr-16 15:33N 59°53' E 030°11'2 0.1
2014-Apr-15 17:25N 59°53' E 030°14'  
2014-Apr-12 22:33N 59°47' E 025°01'8 8.1
2014-Apr-12 21:33N 59°46' E 024°46'9 8.2
2014-Apr-12 20:31N 59°44' E 024°29'190 5.8
2014-Apr-11 11:34N 59°22' E 018°17'5 5.4
2014-Apr-11 10:33N 59°21' E 018°07'0 0.0
2014-Apr-11 09:34N 59°21' E 018°07'0 0.0
2014-Apr-11 08:33N 59°21' E 018°07'0 0.0
2014-Apr-11 07:33N 59°21' E 018°07'0 0.0
2014-Apr-11 06:33N 59°21' E 018°07'0 0.0
2014-Apr-11 05:33N 59°21' E 018°07'0 0.0
2014-Apr-11 04:33N 59°21' E 018°07'0 0.0
2014-Apr-11 03:33N 59°21' E 018°07'0 0.0
2014-Apr-11 02:33N 59°21' E 018°07'0 0.0
2014-Apr-11 01:33N 59°21' E 018°07'0 0.0
2014-Apr-11 00:33N 59°21' E 018°07'0 0.0
2014-Apr-10 23:33N 59°21' E 018°07'0 0.0
2014-Apr-10 22:33N 59°21' E 018°07'0 0.0
2014-Apr-10 21:33N 59°21' E 018°07'0 0.0
2014-Apr-10 20:33N 59°21' E 018°07'0 0.0
2014-Apr-10 19:33N 59°21' E 018°07'  

Dump ship's entire track history

sailing weather and tide predictions

Vingaren — OZ2131 — position and weather